Z-Sat
1 49399U 21102E   25317.87137126  .00015007  00000-0  78019-3 0  9994
2 49399  97.3627 354.6846 0015770 278.9733  80.9715 15.16054733220790
KOSEN 1
1 49402U 21102H   25317.07665255  .00020778  00000-0  88480-3 0  9994
2 49402  97.3523 358.5919 0013356 247.9937 111.9882 15.22923039221088
HO-113
1 50466U 21131B   25317.83569595  .00002449  00000-0  77465-3 0  9998
2 50466  98.5065  46.4021 0004615  38.8238 321.3282 14.41057619204095
SNUGLITE 2
1 52899U 22065F   25317.81877043  .00003660  00000-0  71157-3 0  9993
2 52899  98.1903  98.5207 0007147 348.6384  11.4656 14.63718202179487
UmKA 1 (RS40S)
1 57172U 23091G   25317.80200487  .00014606  00000-0  72670-3 0  9996
2 57172  97.5388  12.3972 0014584 144.9419 215.2778 15.17624071131306
CubeBel-2 (EU11S)
1 57175U 23091K   25317.82162096  .00024790  00000-0  10516-2 0  9999
2 57175  97.5387  14.6559 0011980 147.4525 212.7452 15.23033828131455
SONATE-2
1 59112U 24043Q   25317.61846579  .00048752  00000-0  11003-2 0  9998
2 59112  97.5313  92.8336 0008816 270.7342  89.2895 15.43026913 94487
MO-122
1 60209U 24125G   25317.83815271  .00051579  00000-0  11258-2 0  9990
2 60209  97.2564 168.2348 0014054 294.1442  65.8336 15.43946030 76148
GRBBeta
1 60237U 24128C   25317.77466846  .00012906  00000-0  90114-3 0  9997
2 60237  61.9903 250.8522 0057015  90.5945 270.1680 15.04361766 73836
Curium One
1 60242U 24128H   25317.23219034  .00023154  00000-0  14453-2 0  9997
2 60242  61.9798 248.2978 0056932  87.2421 273.5187 15.08139894 73837
ROBUSTA-3A
1 60243U 24128J   25317.82044995  .00021005  00000-0  13341-2 0  9993
2 60243  61.9872 247.6392 0056645  84.9722 275.7834 15.07570525 73903
CatSat
1 60246U 24125J   25317.54830103  .00063554  00000-0  16652-2 0  9999
2 60246  97.2370 165.2967 0034104 252.5539 107.1977 15.37865222 74034
HYPERVIEW-1G (RS66S)
1 61772U 24199AP  25317.81618138  .00102368  00000-0  21483-2 0  9992
2 61772  97.3246 186.9490 0011118 358.8860   1.2362 15.44932875101142
AO-123
1 61781U 24199AY  25317.85922701  .00026161  00000-0  86619-3 0  9999
2 61781  97.3282 183.6378 0015249   6.4559 353.6875 15.31176569100925
ZIMSAT 2
1 61783U 24199BA  25317.86812443  .00266699  00000-0  29459-2 0  9993
2 61783  97.3156 189.6522 0007842   0.7231 359.4037 15.62154364104480
HADES-R (SO-124)
1 62690U 25009CK  25317.20525541  .00230096  00000-0  40904-2 0  9990
2 62690  97.3932  38.9123 0003119 249.7283 110.3633 15.49323987 46191
HYDRA-T
1 62692U 25009CM  25317.20880265  .00226064  00000-0  38886-2 0  9995
2 62692  97.3928  39.0589 0002795 245.8040 114.2919 15.50278723 46204
JINJUSat 1B
1 63210U 25052A   25317.14692668  .00031546  00000-0  12485-2 0  9997
2 63210  97.4205 209.5147 0005603 112.8012 247.3819 15.25370964 37071
NUSHSAT 1
1 63211U 25052B   25317.22612221  .00043134  00000-0  16600-2 0  9993
2 63211  97.4191 209.6790 0005505 114.5563 245.6249 15.26233437 37096
TEVEL2-4
1 63213U 25052D   25317.28057424  .00040640  00000-0  15919-2 0  9990
2 63213  97.4108 209.3442 0004292 121.7681 238.3976 15.25664801 37098
TEVEL2-5
1 63214U 25052E   25316.43205399  .00049478  00000-0  19437-2 0  9990
2 63214  97.4111 208.4947 0004210 124.1178 236.0460 15.25517699 36961
TEVEL2-6
1 63215U 25052F   25317.22553808  .00040981  00000-0  16106-2 0  9990
2 63215  97.4111 209.2701 0004320 122.0525 238.1133 15.25551694 37081
TEVEL2-1
1 63217U 25052H   25317.19658870  .00041552  00000-0  16477-2 0  9999
2 63217  97.4081 209.0763 0003917 131.1934 228.9642 15.25248713 37077
TEVEL2-3
1 63218U 25052J   25317.13055403  .00034057  00000-0  13523-2 0  9998
2 63218  97.4083 209.0153 0003873 135.8736 224.2812 15.25251467 37062
TEVEL2-2
1 63219U 25052K   25317.65660005  .00039072  00000-0  15482-2 0  9994
2 63219  97.4081 209.5317 0003931 133.1750 226.9817 15.25289598 37149
TEVEL2-9
1 63237U 25052AD  25317.65745766  .00036734  00000-0  15185-2 0  9994
2 63237  97.4147 209.2792 0006939 167.1336 193.0080 15.23866678 37115
TEVEL2-7
1 63238U 25052AE  25317.60303185  .00034564  00000-0  14351-2 0  9998
2 63238  97.4146 209.2053 0007011 167.4719 192.6693 15.23731550 37109
TEVEL2-8
1 63239U 25052AF  25317.47681719  .00036160  00000-0  15026-2 0  9990
2 63239  97.4151 209.0662 0006988 167.5379 192.6032 15.23694003 37080
HYDRA-W
1 63490U 25052BL  25317.44010497  .00114372  00000-0  31554-2 0  9991
2 63490  97.4075 210.9112 0008847 151.3359 208.8373 15.36605434 37217
HADES-ICM (SO-125)
1 63492U 25052BN  25317.66370227  .00099492  00000-0  28747-2 0  9992
2 63492  97.4092 210.9381 0008892 157.6077 202.5556 15.35220137 37230
Dragonfly
1 65729U 98067XH  25317.14607607  .00168570  00000-0  18128-2 0  9997
2 65729  51.6293 286.1780 0004741 117.7600 242.3876 15.62653356  8526
RSP-03
1 65732U 98067XL  25317.29567544  .00153114  00000-0  17432-2 0  9997
2 65732  51.6299 285.6773 0006332  97.4707 262.7006 15.61230702  8551
GHS-01
1 65733U 98067XM  25317.13151792  .00186914  00000-0  19238-2 0  9995
2 65733  51.6307 286.0826 0005272 116.0346 244.1192 15.63707009  8534
BOTAN
1 65942U 98067XP  25317.62607900  .00139578  00000-0  19010-2 0  9990
2 65942  51.6312 285.6332 0004820  67.8046 292.3457 15.56552899  5327
CEVROSAT1
1 98526C 25248E   25306.26352486  .00003971  00000+0  19360-3 0    07
2 98526  45.4084 255.8570 0001315 254.8982 118.2631 15.17600497    10
